sat.trackr.live / text

‹ back to catalog

STARLINK-5640

NORAD 55436 · 2023-014AX

PAYLOAD ACTIVE UNKNOWN

§ Identity

Operator
Country
US
Launch date
2023-01-31
Launch site
AFWTR
Launch vehicle
Mass (kg)
RCS (m²)

Purposes: comms

External: N2YO · Heavens-Above · Gunter

§ Orbital elements

Epoch: 2026-09-20T22:28:49.926144Z

Period
96.11 min
Inclination
69.9995°
Eccentricity
0.0003399
Mean motion
14.98331044 rev/d
Perigee alt
569.7 km
Apogee alt
574.4 km
Semi-major
6,950.2 km
B*
-2.3230e-6
RAAN
332.2176°
Arg perigee
270.8304°
Mean anomaly
89.2465°
Rev number
20,031

§ Raw data

STARLINK-56401 55436U 23014AX  26263.93668896 -.00000121  00000+0 -23230-5 0  99972 55436  69.9995 332.2176 0003399 270.8304  89.2465 14.98331044200311

JSON: /api/v1/satellites/55436 · /tle

For live sub-satellite position, see the globe view (requires WebGL).

§ Visibility from observer

Set your observer location to see the next 7 days of passes ≥ 10°. The values pass through the URL so the page stays shareable.

No JS? Fill the form by hand. The geolocation button needs JavaScript.